| time (UTC) | temp F | wind direction | speed MPH | gust MPH | rain 1hr in | rain 24hr in | rain mn in | humidity % | barometer mb |
| 20260505061906 | 49 | 243 | 7.0 | 23.0 | 0.00 | 0.00 | 0.00 | 92 | 1012.1 |
| 20260505061406 | 49 | 238 | 11.0 | 23.0 | 0.00 | 0.00 | 0.00 | 91 | 1012.1 |
| 20260505060905 | 49 | 247 | 7.0 | 24.0 | 0.00 | 0.00 | 0.00 | 91 | 1012.0 |
| 20260505060406 | 49 | 241 | 9.0 | 32.0 | 0.00 | 0.00 | 0.00 | 91 | 1012.0 |
| 20260505055905 | 49 | 246 | 10.0 | 32.0 | 0.00 | 0.00 | 0.00 | 91 | 1012.0 |
| 20260505055405 | 49 | 236 | 13.0 | 32.0 | 0.00 | 0.00 | 0.00 | 91 | 1011.7 |
| 20260505054907 | 49 | 238 | 9.0 | 29.0 | 0.00 | 0.00 | 0.00 | 91 | 1011.7 |
| 20260505053906 | 49 | 260 | 7.0 | 23.0 | 0.00 | 0.00 | 0.00 | 91 | 1011.5 |
| 20260505053406 | 49 | 244 | 8.0 | 23.0 | 0.00 | 0.00 | 0.00 | 91 | 1011.5 |
| 20260505052905 | 49 | 255 | 8.0 | 24.0 | 0.00 | 0.00 | 0.00 | 91 | 1011.6 |
| 20260505052405 | 49 | 248 | 8.0 | 24.0 | 0.00 | 0.00 | 0.00 | 91 | 1011.6 |
| 20260505050905 | 50 | 255 | 6.0 | 24.0 | 0.00 | 0.00 | 0.00 | 90 | 1011.3 |
| 20260505041405 | 51 | 242 | 10.0 | 22.0 | 0.00 | 0.00 | 0.00 | 87 | 1010.7 |
| 20260505040406 | 51 | 267 | 8.0 | 31.0 | 0.00 | 0.00 | 0.00 | 87 | 1010.7 |
| 20260505035904 | 51 | 269 | 9.0 | 31.0 | 0.00 | 0.00 | 0.00 | 86 | 1010.7 |
| 20260505035406 | 51 | 275 | 9.0 | 22.0 | 0.00 | 0.00 | 0.00 | 86 | 1010.7 |
| 20260505034404 | 51 | 263 | 10.0 | 24.0 | 0.00 | 0.00 | 0.00 | 85 | 1010.7 |
| 20260505033905 | 52 | 263 | 11.0 | 26.0 | 0.00 | 0.00 | 0.00 | 84 | 1010.7 |
| 20260505033407 | 52 | 271 | 12.0 | 26.0 | 0.00 | 0.00 | 0.00 | 84 | 1010.7 |
| 20260505032904 | 52 | 237 | 11.0 | 23.0 | 0.00 | 0.00 | 0.00 | 83 | 1010.7 |
| 20260505032404 | 52 | 255 | 7.0 | 23.0 | 0.00 | 0.00 | 0.00 | 82 | 1010.7 |
| 20260505031907 | 53 | 241 | 8.0 | 17.0 | 0.00 | 0.00 | 0.00 | 82 | 1010.7 |
| 20260505031404 | 53 | 263 | 7.0 | 18.0 | 0.00 | 0.00 | 0.00 | 81 | 1010.7 |
| 20260505030407 | 53 | 248 | 7.0 | 22.0 | 0.00 | 0.00 | 0.00 | 81 | 1010.5 |
| 20260505025906 | 53 | 251 | 10.0 | 24.0 | 0.00 | 0.00 | 0.00 | 80 | 1010.5 |
| 20260505025405 | 54 | 263 | 9.0 | 24.0 | 0.00 | 0.00 | 0.00 | 80 | 1010.9 |
| 20260505024906 | 54 | 229 | 13.0 | 23.0 | 0.00 | 0.00 | 0.00 | 79 | 1010.9 |
| 20260505024405 | 54 | 233 | 8.0 | 23.0 | 0.00 | 0.00 | 0.00 | 79 | 1010.9 |
| 20260505022905 | 54 | 239 | 9.0 | 23.0 | 0.00 | 0.00 | 0.00 | 78 | 1010.9 |
| 20260505022404 | 55 | 235 | 13.0 | 28.0 | 0.00 | 0.00 | 0.00 | 78 | 1010.9 |
| 20260505021905 | 55 | 257 | 13.0 | 28.0 | 0.00 | 0.00 | 0.00 | 77 | 1010.9 |
| 20260505021406 | 55 | 247 | 9.0 | 23.0 | 0.00 | 0.00 | 0.00 | 77 | 1010.9 |
| 20260505020905 | 55 | 234 | 6.0 | 23.0 | 0.00 | 0.00 | 0.00 | 76 | 1010.9 |
| 20260505020404 | 55 | 239 | 10.0 | 26.0 | 0.00 | 0.00 | 0.00 | 76 | 1010.9 |
| 20260505015906 | 55 | 246 | 9.0 | 26.0 | 0.00 | 0.00 | 0.00 | 76 | 1010.9 |
| 20260505015405 | 55 | 262 | 9.0 | 26.0 | 0.00 | 0.00 | 0.00 | 75 | 1010.9 |
| 20260505014404 | 56 | 229 | 7.0 | 22.0 | 0.00 | 0.00 | 0.00 | 75 | 1010.9 |
| 20260505013904 | 56 | 229 | 7.0 | 26.0 | 0.00 | 0.00 | 0.00 | 75 | 1010.9 |
| 20260505013405 | 56 | 258 | 11.0 | 26.0 | 0.00 | 0.00 | 0.00 | 74 | 1011.0 |
| 20260505012904 | 56 | 224 | 10.0 | 23.0 | 0.00 | 0.00 | 0.00 | 74 | 1011.0 |
| 20260505012406 | 57 | 237 | 12.0 | 23.0 | 0.00 | 0.00 | 0.00 | 73 | 1011.0 |
| 20260505011905 | 57 | 214 | 8.0 | 22.0 | 0.00 | 0.00 | 0.00 | 72 | 1011.0 |
| 20260505010906 | 57 | 219 | 9.0 | 23.0 | 0.00 | 0.00 | 0.00 | 71 | 1011.0 |
| 20260505010404 | 58 | 240 | 10.0 | 23.0 | 0.00 | 0.00 | 0.00 | 71 | 1011.0 |
| 20260505005906 | 58 | 200 | 7.0 | 22.0 | 0.00 | 0.00 | 0.00 | 70 | 1011.0 |
| 20260505005404 | 58 | 199 | 9.0 | 22.0 | 0.00 | 0.00 | 0.00 | 70 | 1011.0 |
| 20260505004905 | 58 | 212 | 7.0 | 18.0 | 0.00 | 0.00 | 0.00 | 70 | 1011.0 |
| 20260505004404 | 58 | 211 | 9.0 | 23.0 | 0.00 | 0.00 | 0.00 | 71 | 1011.0 |
| 20260505003906 | 59 | 217 | 8.0 | 23.0 | 0.00 | 0.00 | 0.00 | 70 | 1010.9 |
| 20260505003406 | 59 | 220 | 9.0 | 20.0 | 0.00 | 0.00 | 0.00 | 70 | 1011.0 |
| 20260505002905 | 59 | 206 | 7.0 | 23.0 | 0.00 | 0.00 | 0.00 | 69 | 1011.0 |
| 20260505002405 | 59 | 241 | 7.0 | 23.0 | 0.00 | 0.00 | 0.00 | 70 | 1011.0 |
| 20260505001905 | 59 | 225 | 8.0 | 24.0 | 0.00 | 0.00 | 0.00 | 69 | 1011.0 |
| 20260505000905 | 60 | 269 | 9.0 | 23.0 | 0.00 | 0.00 | 0.00 | 69 | 1011.0 |
| 20260505000406 | 60 | 218 | 9.0 | 23.0 | 0.00 | 0.00 | 0.00 | 69 | 1011.0 |
| 20260504235906 | 60 | 248 | 7.0 | 23.0 | 0.00 | 0.00 | 0.00 | 69 | 1011.0 |
| 20260504234904 | 61 | 256 | 8.0 | 20.0 | 0.00 | 0.00 | 0.00 | 68 | 1011.0 |
| 20260504233904 | 61 | 268 | 7.0 | 22.0 | 0.00 | 0.00 | 0.00 | 68 | 1011.0 |
| 20260504232904 | 61 | 252 | 5.0 | 18.0 | 0.00 | 0.00 | 0.00 | 69 | 1011.0 |
| 20260504231906 | 61 | 240 | 5.0 | 17.0 | 0.00 | 0.00 | 0.00 | 70 | 1011.0 |
| 20260504231404 | 61 | 265 | 9.0 | 20.0 | 0.00 | 0.00 | 0.00 | 68 | 1011.1 |
| 20260504230904 | 62 | 254 | 9.0 | 20.0 | 0.00 | 0.00 | 0.00 | 68 | 1011.4 |
| 20260504230404 | 62 | 249 | 5.0 | 15.0 | 0.00 | 0.00 | 0.00 | 68 | 1011.4 |
| 20260504225904 | 62 | 265 | 4.0 | 12.0 | 0.00 | 0.00 | 0.00 | 69 | 1011.4 |
| 20260504225406 | 62 | 256 | 5.0 | 15.0 | 0.00 | 0.00 | 0.00 | 69 | 1011.5 |
| 20260504223404 | 62 | 259 | 5.0 | 18.0 | 0.00 | 0.00 | 0.00 | 69 | 1011.5 |
| 20260504222905 | 62 | 258 | 7.0 | 18.0 | 0.00 | 0.00 | 0.00 | 67 | 1011.5 |
| 20260504221904 | 62 | 268 | 5.0 | 17.0 | 0.00 | 0.00 | 0.00 | 68 | 1011.5 |
| 20260504221406 | 62 | 274 | 5.0 | 17.0 | 0.00 | 0.00 | 0.00 | 69 | 1011.8 |
| 20260504220404 | 62 | 272 | 6.0 | 14.0 | 0.00 | 0.00 | 0.00 | 70 | 1011.8 |
| 20260504215905 | 62 | 251 | 5.0 | 14.0 | 0.00 | 0.00 | 0.00 | 69 | 1011.8 |
| 20260504215405 | 62 | 225 | 5.0 | 14.0 | 0.00 | 0.00 | 0.00 | 68 | 1011.8 |
| 20260504214905 | 62 | 289 | 5.0 | 17.0 | 0.00 | 0.00 | 0.00 | 67 | 1011.9 |
| 20260504213404 | 62 | 280 | 3.0 | 14.0 | 0.00 | 0.00 | 0.00 | 69 | 1011.9 |
| 20260504212904 | 62 | 268 | 4.0 | 14.0 | 0.00 | 0.00 | 0.00 | 68 | 1011.9 |
| 20260504212404 | 62 | 281 | 5.0 | 13.0 | 0.00 | 0.00 | 0.00 | 69 | 1011.9 |
| 20260504211904 | 62 | 265 | 6.0 | 13.0 | 0.00 | 0.00 | 0.00 | 68 | 1011.9 |
| 20260504211404 | 62 | 239 | 3.0 | 12.0 | 0.00 | 0.00 | 0.00 | 67 | 1011.9 |
| 20260504210904 | 62 | 260 | 3.0 | 15.0 | 0.00 | 0.00 | 0.00 | 67 | 1011.9 |
| 20260504210404 | 63 | 265 | 5.0 | 16.0 | 0.00 | 0.00 | 0.00 | 67 | 1011.9 |
| 20260504205906 | 63 | 278 | 7.0 | 16.0 | 0.00 | 0.00 | 0.00 | 66 | 1011.9 |
| 20260504205405 | 63 | 255 | 4.0 | 14.0 | 0.00 | 0.00 | 0.00 | 66 | 1011.9 |
| 20260504204906 | 63 | 278 | 6.0 | 14.0 | 0.00 | 0.00 | 0.00 | 66 | 1011.9 |
| 20260504204406 | 63 | 286 | 5.0 | 16.0 | 0.00 | 0.00 | 0.00 | 64 | 1011.9 |
| 20260504203905 | 64 | 277 | 5.0 | 16.0 | 0.00 | 0.00 | 0.00 | 63 | 1011.9 |
| 20260504203406 | 64 | 266 | 5.0 | 8.0 | 0.00 | 0.00 | 0.00 | 63 | 1011.9 |
| 20260504202405 | 64 | 280 | 4.0 | 15.0 | 0.00 | 0.00 | 0.00 | 63 | 1011.9 |
| 20260504201905 | 64 | 293 | 4.0 | 12.0 | 0.00 | 0.00 | 0.00 | 62 | 1011.9 |
| 20260504201405 | 64 | 267 | 4.0 | 10.0 | 0.00 | 0.00 | 0.00 | 61 | 1011.9 |
| 20260504200904 | 65 | 233 | 6.0 | 10.0 | 0.00 | 0.00 | 0.00 | 60 | 1011.9 |
| 20260504200405 | 65 | 259 | 4.0 | 15.0 | 0.00 | 0.00 | 0.00 | 61 | 1011.9 |
| 20260504195905 | 65 | 247 | 2.0 | 15.0 | 0.00 | 0.00 | 0.00 | 61 | 1011.9 |
| 20260504195405 | 65 | 288 | 5.0 | 15.0 | 0.00 | 0.00 | 0.00 | 58 | 1011.9 |
| 20260504194904 | 66 | 274 | 5.0 | 14.0 | 0.00 | 0.00 | 0.00 | 55 | 1011.9 |
| 20260504194404 | 67 | 291 | 5.0 | 13.0 | 0.00 | 0.00 | 0.00 | 55 | 1011.9 |
| 20260504193907 | 67 | 285 | 4.0 | 15.0 | 0.00 | 0.00 | 0.00 | 54 | 1011.9 |
| 20260504193404 | 67 | 277 | 2.0 | 15.0 | 0.00 | 0.00 | 0.00 | 55 | 1011.9 |
| 20260504192405 | 69 | 293 | 8.0 | 15.0 | 0.00 | 0.00 | 0.00 | 49 | 1011.9 |
| 20260504191904 | 72 | 279 | 7.0 | 14.0 | 0.00 | 0.00 | 0.00 | 48 | 1011.6 |
| 20260504191404 | 74 | 282 | 6.0 | 13.0 | 0.00 | 0.00 | 0.00 | 48 | 1011.6 |
| 20260504190906 | 76 | 293 | 5.0 | 13.0 | 0.00 | 0.00 | 0.00 | 47 | 1011.6 |
| 20260504190404 | 76 | 290 | 5.0 | 8.0 | 0.00 | 0.00 | 0.00 | 47 | 1011.6 |
| 20260504185904 | 76 | 303 | 3.0 | 6.0 | 0.00 | 0.00 | 0.00 | 47 | 1011.8 |
| 20260504184906 | 75 | 304 | 3.0 | 5.0 | 0.00 | 0.00 | 0.00 | 48 | 1011.8 |
| 20260504183906 | 75 | 297 | 1.0 | 2.0 | 0.00 | 0.00 | 0.00 | 45 | 1011.8 |
| 20260504183404 | 74 | 297 | 2.0 | 2.0 | 0.00 | 0.00 | 0.00 | 48 | 1011.8 |
| 20260504182905 | 74 | 297 | 1.0 | 2.0 | 0.00 | 0.00 | 0.00 | 46 | 1011.9 |
| 20260504182405 | 74 | 297 | 1.0 | 2.0 | 0.00 | 0.00 | 0.00 | 44 | 1011.9 |
| 20260504181904 | 74 | 297 | 1.0 | 2.0 | 0.00 | 0.00 | 0.00 | 46 | 1011.9 |
| 20260504180905 | 74 | 297 | 1.0 | 2.0 | 0.00 | 0.00 | 0.00 | 45 | 1012.0 |
| 20260504180404 | 74 | 297 | 1.0 | 3.0 | 0.00 | 0.00 | 0.00 | 46 | 1012.0 |
| 20260504175405 | 73 | 297 | 2.0 | 3.0 | 0.00 | 0.00 | 0.00 | 47 | 1011.9 |
| 20260504174904 | 73 | 297 | 2.0 | 3.0 | 0.00 | 0.00 | 0.00 | 45 | 1011.9 |
| 20260504174405 | 74 | 297 | 1.0 | 3.0 | 0.00 | 0.00 | 0.00 | 45 | 1011.9 |
| 20260504173904 | 74 | 297 | 1.0 | 3.0 | 0.00 | 0.00 | 0.00 | 44 | 1011.9 |
| 20260504173404 | 74 | 297 | 2.0 | 3.0 | 0.00 | 0.00 | 0.00 | 47 | 1011.9 |
| 20260504172905 | 74 | 299 | 1.0 | 3.0 | 0.00 | 0.00 | 0.00 | 47 | 1012.0 |
| 20260504172405 | 74 | 307 | 2.0 | 3.0 | 0.00 | 0.00 | 0.00 | 44 | 1012.0 |
| 20260504171405 | 73 | 307 | 1.0 | 3.0 | 0.00 | 0.00 | 0.00 | 46 | 1012.0 |
| 20260504170406 | 72 | 307 | 2.0 | 3.0 | 0.00 | 0.00 | 0.00 | 48 | 1012.0 |
| 20260504160408 | 70 | 340 | 2.0 | 6.0 | 0.00 | 0.00 | 0.00 | 50 | 1011.1 |
| 20260504150905 | 65 | 280 | 1.0 | 5.0 | 0.00 | 0.00 | 0.00 | 50 | 1011.0 |
| 20260504150406 | 64 | 280 | 1.0 | 5.0 | 0.00 | 0.00 | 0.00 | 57 | 1010.8 |
| 20260504140905 | 56 | 195 | 6.0 | 6.0 | 0.00 | 0.00 | 0.00 | 64 | 1010.5 |
| 20260504140404 | 56 | 198 | 6.0 | 6.0 | 0.00 | 0.00 | 0.00 | 63 | 1010.5 |
| 20260504130405 | 53 | 183 | 8.0 | 9.0 | 0.00 | 0.00 | 0.00 | 66 | 1010.1 |
| 20260504110404 | 53 | 168 | 5.0 | 6.0 | 0.00 | 0.00 | 0.00 | 67 | 1010.0 |
| 20260504100404 | 53 | 187 | 3.0 | 5.0 | 0.00 | 0.00 | 0.00 | 67 | 1010.0 |
| 20260504081405 | 55 | 312 | 0.0 | 1.0 | 0.00 | 0.00 | 0.00 | 62 | 1009.6 |
| 20260504080904 | 55 | 297 | 0.0 | 3.0 | 0.00 | 0.00 | 0.00 | 62 | 1009.6 |
| 20260504080405 | 56 | 297 | 1.0 | 5.0 | 0.00 | 0.00 | 0.00 | 63 | 1009.6 |
| 20260504070404 | 57 | 203 | 6.0 | 5.0 | 0.00 | 0.00 | 0.00 | 60 | 1010.0 |